User: anonymous   Login
Location: Oshawa
(43.9000°N, 78.8670°W)
Time: 10:13:29
(UTC-04:00)
Language:

Cosmos 1707 Rocket - Orbit

View from above orbital plane
View from above orbital plane
View from above satellite
View from above satellite

Ground track
Ground track

The orbit data is extracted from the following two-line orbital elements,

1 16327U 85113B   17178.85873853 +.00000075 +00000-0 +61843-5 0  9997
2 16327 082.5355 082.4333 0017961 317.0245 087.0352 14.83359952703462
Epoch (UTC): 27 June 2017 20:36:35
Eccentricity: 0.0017961
inclination: 82.5355°
perigee height: 606 km
apogee height: 631 km
right ascension of ascending node: 82.4333°
argument of perigee: 317.0245°
revolutions per day: 14.83359952
mean anomaly at epoch: 87.0352°
orbit number at epoch: 70346

The dashed part of the orbit path shows where the satellite is in the earth's shadow,  

DLR